Location: Axtheid
(49.6213°N, 11.8205°E)
Time: 20:33:22
(UTC+00:00)

IDEFIX/ARIANE 42P - Pass Details

Date: 18 February 2020
Orbit: 784 x 804 km, 98.3° (Epoch: 29 March)

Event Time Altitude Azimuth Distance (km) Brightness Sun altitude
Rises 03:16:19 0° 11° (NNE) 3,321 6.2 -29.9°
Reaches altitude 10° 03:18:41 10° 9° (N) 2,384 5.3 -29.5°
Enters shadow 03:21:52 37° 355° (N) 1,238 3.6 -29.0°
